CST,Max TemperatureF,Mean TemperatureF,Min TemperatureF,Max Dew PointF,MeanDew PointF,Min DewpointF,Max Humidity, Mean Humidity, Min Humidity, Max Sea Level PressureIn, Mean Sea Level PressureIn, Min Sea Level PressureIn, Max VisibilityMiles, Mean VisibilityMiles, Min VisibilityMiles, Max Wind SpeedMPH, Mean Wind SpeedMPH, Max Gust SpeedMPH,PrecipitationIn, CloudCover, Events, WindDirDegrees
2013-2-1,47,33,19,30,21,15,96,69,44,30.41,30.28,30.12,10,10,10,14,7,20,0.00,0,,139
2013-2-2,59,44,28,39,32,26,100,70,36,30.33,30.26,30.16,10,10,10,14,5,20,0.00,0,,323
2013-2-3,60,46,31,37,33,28,94,63,37,30.31,30.16,29.88,10,10,10,18,6,25,0.00,0,,165
2013-2-4,63,50,34,40,34,31,89,54,33,29.97,29.90,29.81,10,10,10,17,11,23,0.00,0,,352
2013-2-5,67,48,28,42,34,27,96,69,31,30.04,29.99,29.93,10,10,10,7,2,,0.00,0,,78
2013-2-6,61,50,38,58,52,35,100,97,85,30.03,29.93,29.82,10,5,0,21,6,29,0.00,7,Fog,151
2013-2-7,59,48,35,59,48,32,100,83,48,30.22,29.97,29.77,10,9,0,28,16,38,0.00,5,Fog-Rain,6
2013-2-8,53,40,26,36,31,26,100,73,41,30.31,30.21,30.11,10,10,10,10,5,,0.00,0,,107
2013-2-9,49,42,36,49,41,34,100,93,81,30.11,29.88,29.63,10,8,2,22,11,29,0.04,5,Rain,148
2013-2-10,59,46,32,52,34,28,100,61,33,30.08,29.80,29.61,10,10,5,25,14,32,0.01,1,Rain,275
2013-2-11,49,40,30,30,28,25,87,65,41,30.23,30.15,30.09,10,10,10,16,8,18,0.00,1,,26
2013-2-12,39,35,31,34,32,28,100,89,64,30.10,30.05,30.00,10,5,0,16,10,,0.12,7,Snow,9
2013-2-13,43,30,18,36,31,19,100,91,70,30.07,30.02,29.97,10,8,0,12,6,,0.00,1,Fog,241
2013-2-14,54,43,32,42,36,30,100,77,59,30.26,30.09,29.99,10,10,10,21,9,24,0.00,2,,350
2013-2-15,42,36,29,38,27,22,100,73,51,30.43,30.36,30.28,10,10,2,21,13,28,0.00,5,Snow,1
2013-2-16,55,38,22,39,32,23,100,79,49,30.39,30.23,30.04,10,10,4,22,6,28,0.00,1,Snow,225
2013-2-17,68,52,37,39,34,31,77,51,30,30.04,29.86,29.67,10,10,10,28,10,32,0.00,0,,191
2013-2-18,55,44,32,48,35,27,89,60,39,30.16,29.83,29.56,10,10,10,30,18,40,0.00,0,,295
2013-2-19,52,38,24,32,28,23,96,66,42,30.32,30.22,30.16,10,10,10,14,5,16,0.00,0,,97
2013-2-20,42,38,33,37,35,31,100,95,65,30.16,30.04,29.88,10,7,1,22,11,29,0.17,8,Rain-Snow,119
2013-2-21,34,28,22,35,30,19,100,98,86,30.00,29.78,29.67,10,7,1,23,13,33,0.49,6,Snow-Thunderstorm,5
2013-2-22,31,24,18,25,21,16,94,84,71,30.14,30.08,29.99,10,10,10,16,9,22,0.00,0,,332
2013-2-23,45,34,23,38,30,23,100,89,69,30.11,29.98,29.86,10,10,10,13,3,16,0.00,1,,188
2013-2-24,62,47,32,48,38,31,100,79,53,29.86,29.77,29.68,10,10,4,24,9,30,0.14,2,Rain-Thunderstorm,155
2013-2-25,38,35,32,38,36,33,100,100,100,29.82,29.70,29.57,5,3,0,26,17,34,1.86,8,Rain-Snow-Thunderstorm,11
2013-2-26,38,32,26,32,30,26,100,94,77,29.95,29.89,29.84,10,10,10,10,6,,0.00,0,,310
2013-2-27,39,30,21,32,28,20,100,86,66,30.24,30.12,29.93,10,10,10,21,10,29,0.00,1,,315
2013-2-28,42,32,23,31,28,24,100,84,63,30.28,30.24,30.22,10,10,10,15,8,18,0.00,0,,313